﻿METLOCID,DATE_TIME,AVG_SURF_CHANGE,STDDEV_SURF_CHANGE,MIN_SURF_CHANGE,MAX_SURF_CHANGE,N_SURF_CHANGE,N_COMMENTS
VAAM,1/26/04,0.42745098,0.174445901,-0.2,0.6,51,0
VAAM,1/27/04,0.445833333,0.091670654,0.3,0.6,96,0
VAAM,1/28/04,0.458333333,0.100175285,0.3,0.6,96,0
VAAM,1/29/04,0.4375,0.103872391,0.3,0.6,96,0
VAAM,1/30/04,0.404166667,0.134490592,0.2,0.7,96,0
VAAM,1/31/04,0.379166667,0.096154116,0.2,0.6,96,0
VAAM,2/1/04,0.375,0.105630936,0.2,0.6,96,0
VAAM,2/2/04,0.395833333,0.117801498,0.2,0.6,96,0
VAAM,2/3/04,0.320833333,0.119575272,0.2,0.6,96,0
VAAM,2/4/04,0.316666667,0.173306341,0,0.6,96,0
VAAM,2/5/04,0.3,0.142163731,0,0.6,96,0
VAAM,2/6/04,0.316666667,0.125376626,0.1,0.5,96,0
VAAM,2/7/04,0.333333333,0.118469776,0.2,0.6,96,0
VAAM,2/8/04,0.233333333,0.138158312,0,0.5,96,0
VAAM,2/9/04,0.333333333,0.163299316,0,0.6,96,0
VAAM,2/10/04,0.270833333,0.098319208,0.1,0.5,96,0
VAAM,2/11/04,0.204166667,0.089344592,0.1,0.4,96,0
VAAM,2/12/04,0.275,0.088257995,0.1,0.5,96,0
VAAM,2/13/04,0.291666667,0.115773524,0.1,0.6,96,0
VAAM,2/14/04,0.258333333,0.144853223,-0.1,0.5,96,0
VAAM,2/15/04,0.258333333,0.122832078,0,0.5,96,0
VAAM,2/16/04,0.275,0.072547625,0.2,0.4,96,0
VAAM,2/17/04,0.275,0.092906291,0.1,0.4,96,0
VAAM,2/18/04,0.254166667,0.108498525,0,0.5,96,0
VAAM,2/19/04,0.254166667,0.091670654,0.1,0.4,96,0
VAAM,2/20/04,0.254166667,0.086956331,0.1,0.4,96,0
VAAM,2/21/04,0.2375,0.081110711,0.1,0.5,96,0
VAAM,2/22/04,0.241666667,0.070586515,0.1,0.4,96,0
VAAM,2/23/04,0.120833333,0.100437639,0,0.3,96,0
VAAM,2/24/04,0.55,0.997681523,0,4.2,96,0
VAAM,2/25/04,8.354166667,2.329125278,1.5,11.1,96,0
VAAM,2/26/04,6.866666667,1.017599515,4,8.5,96,0
VAAM,2/27/04,5.483333333,0.642145526,4.2,6.4,96,0
VAAM,2/28/04,4.633333333,0.458525478,3.8,5.2,96,0
VAAM,2/29/04,4.970833333,0.124745355,4.7,5.1,96,0
VAAM,3/1/04,4.816666667,0.074926865,4.7,4.9,96,0
VAAM,3/2/04,4.970833333,0.084500597,4.7,5.1,96,0
VAAM,3/3/04,4.9375,0.063660283,4.8,5,96,0
VAAM,3/4/04,4.779166667,0.076662853,4.6,4.9,96,0
VAAM,3/5/04,4.666666667,0.069079156,4.5,4.8,96,0
VAAM,3/6/04,4.479166667,0.104545801,4.3,4.7,96,0
VAAM,3/7/04,4.333333333,0.090223893,4.2,4.6,96,0
VAAM,3/8/04,4.329166667,0.067926689,4.1,4.4,96,0
VAAM,3/9/04,4.225,0.088257995,4,4.3,96,0
VAAM,3/10/04,4.275,0.066490997,4.2,4.5,96,0
VAAM,3/11/04,4.2375,0.086145532,4.1,4.4,96,0
VAAM,3/12/04,4.229166667,0.073865691,4.1,4.4,96,0
VAAM,3/13/04,4.295833333,0.067926689,4.2,4.4,96,0
VAAM,3/14/04,4.341666667,0.057430354,4.2,4.4,96,0
VAAM,3/15/04,4.304166667,0.054127854,4.2,4.4,96,0
VAAM,3/16/04,4.304166667,0.061416039,4.2,4.4,96,0
VAAM,3/17/04,4.4125,0.078472255,4.2,4.5,96,0
VAAM,3/18/04,4.379166667,0.040824829,4.3,4.4,96,0
VAAM,3/19/04,4.325,0.052314836,4.2,4.4,96,0
VAAM,3/20/04,4.4375,0.086145532,4.3,4.6,96,0
VAAM,3/21/04,4.520833333,0.096154116,4.4,4.7,96,0
VAAM,3/22/04,4.570833333,0.114171309,4.3,4.7,96,0
VAAM,3/23/04,4.7,0.132981993,4.4,4.8,96,0
VAAM,3/24/04,4.7625,0.069962396,4.6,4.9,96,0
VAAM,3/25/04,4.875,0.398153633,3.9,5.7,96,0
VAAM,3/26/04,5.941666667,0.545925899,4.4,6.4,96,0
VAAM,3/27/04,4.991666667,1.728989158,1.6,7.7,96,0
VAAM,3/28/04,2.7875,0.790103258,1.5,5,96,0
VAAM,3/29/04,2.7,0.100524938,2.4,2.8,96,0
VAAM,3/30/04,1.920833333,0.24790349,1.6,2.3,96,0
VAAM,3/31/04,1.679166667,0.064753243,1.5,1.8,96,0
VAAM,4/1/04,1.5875,0.078472255,1.4,1.7,96,0
VAAM,4/2/04,2.1,0.516669496,1.4,3.2,96,0
VAAM,4/3/04,1.8125,0.236309342,1.1,2.1,96,0
VAAM,4/4/04,2.1875,0.234520788,1.7,2.6,96,0
VAAM,4/5/04,2.545833333,0.057886762,2.5,2.7,96,0
VAAM,4/6/04,2.525,0.078136183,2.3,2.7,96,0
VAAM,4/7/04,2.566666667,0.05556725,2.4,2.6,96,0
VAAM,4/8/04,2.420833333,0.064753243,2.3,2.6,96,0
VAAM,4/9/04,2.316666667,0.080350111,2.1,2.4,96,0
VAAM,4/10/04,2.204166667,0.035293258,2.1,2.3,96,0
VAAM,4/11/04,2.183333333,0.037463432,2.1,2.2,96,0
VAAM,4/12/04,2.083333333,0.037463432,2,2.1,96,0
VAAM,4/13/04,2.141666667,0.057430354,2,2.2,96,0
VAAM,4/14/04,2.1875,0.066885605,2.1,2.3,96,0
VAAM,4/15/04,2.295833333,0.067926689,2.1,2.4,96,0
VAAM,4/16/04,2.2125,0.169984519,1.7,2.4,96,0
VAAM,4/17/04,2.2375,0.069962396,2.1,2.4,96,0
VAAM,4/18/04,2.175,0.052314836,2.1,2.3,96,0
VAAM,4/19/04,2.166666667,0.04738791,2.1,2.2,96,0
VAAM,4/20/04,2.1375,0.048666426,2.1,2.2,96,0
VAAM,4/21/04,2.1125,0.033245498,2.1,2.2,96,0
VAAM,4/22/04,2.266666667,0.05556725,2.1,2.3,96,0
VAAM,4/23/04,2.129166667,0.110421839,1.9,2.3,96,0
VAAM,4/24/04,2.229166667,0.335266325,1.6,2.7,96,0
VAAM,4/25/04,2.225,0.092906291,2,2.4,96,0
VAAM,4/26/04,2.258333333,0.141916704,2,2.6,96,0
VAAM,4/27/04,2.2625,0.081110711,2.1,2.4,96,0
VAAM,4/28/04,2.1625,0.056661506,2.1,2.3,96,0
VAAM,4/29/04,2.104166667,0.054127854,2,2.2,96,0
VAAM,4/30/04,2.075,0.059824304,2,2.2,96,0
VAAM,5/1/04,1.8375,0.129167374,1.6,2.2,96,0
VAAM,5/2/04,1.983333333,0.128691117,1.7,2.2,96,0
VAAM,5/3/04,1.966666667,0.173306341,1.3,2.2,96,0
VAAM,5/4/04,2.095833333,0.106540496,1.9,2.3,96,0
VAAM,5/5/04,1.925,0.088257995,1.8,2,96,0
VAAM,5/6/04,1.641666667,0.064345558,1.6,1.8,96,0
VAAM,5/7/04,1.533333333,0.04738791,1.5,1.6,96,0
VAAM,5/8/04,1.4875,0.033245498,1.4,1.5,96,0
VAAM,5/9/04,1.408333333,0.049559463,1.3,1.5,96,0
VAAM,5/10/04,1.508333333,0.08665317,1.3,1.7,96,0
VAAM,5/11/04,1.854166667,0.348203409,1.1,2.5,96,0
VAAM,5/12/04,2.3125,0.097602847,2,2.5,96,0
VAAM,5/13/04,2.15,0.150787407,1.9,2.7,96,0
VAAM,5/14/04,2.104166667,0.124745355,1.8,2.3,96,0
VAAM,5/15/04,1.691666667,0.344480285,0.7,2.2,96,0
VAAM,5/16/04,2.166666667,0.163299316,1.9,2.4,96,0
VAAM,5/17/04,1.883333333,0.460358365,0.5,2.4,96,0
VAAM,5/18/04,1.6875,0.213861736,1.2,1.9,96,0
VAAM,5/19/04,1.7875,0.093189112,1.6,1.9,96,0
VAAM,5/20/04,1.545833333,0.070958352,1.4,1.6,96,0
VAAM,5/21/04,1.379166667,0.119575272,1.3,1.6,96,0
VAAM,5/22/04,1.520833333,0.116000605,1.2,1.6,96,0
VAAM,5/23/04,1.145833333,0.050087642,1.1,1.2,96,0
VAAM,5/24/04,0.995833333,0.102512301,0.8,1.1,96,0
VAAM,5/25/04,0.795833333,0.035293258,0.7,0.9,96,0
VAAM,5/26/04,0.7375,0.063660283,0.6,0.9,96,0
VAAM,5/27/04,0.695833333,0.089344592,0.6,1,96,0
VAAM,5/28/04,1.1,0.071081865,0.9,1.2,96,0
VAAM,5/29/04,0.95,0.239297217,0.5,1.2,96,0
VAAM,5/30/04,0.5375,0.056661506,0.4,0.6,96,0
VAAM,5/31/04,0.508333333,0.064345558,0.4,0.6,96,0
VAAM,6/1/04,0.579166667,0.570856543,-0.4,1.2,96,0
VAAM,6/2/04,-0.466666667,0.321400444,-0.9,0,96,0
VAAM,6/3/04,0.754166667,0.279818237,0.2,1,96,0
VAAM,6/4/04,0.7375,0.122474487,0.5,0.9,96,0
VAAM,6/5/04,0.645833333,0.100437639,0.4,0.9,96,0
VAAM,6/6/04,1.316666667,0.571363405,0.4,2.1,96,0
VAAM,6/7/04,1.529166667,0.298034497,0.9,2,96,0
VAAM,6/8/04,1.604166667,0.253778464,0.6,1.9,96,0
VAAM,6/9/04,1.258333333,0.482900593,-0.1,1.8,96,0
VAAM,6/10/04,0.779166667,0.235714665,0.2,1.1,96,0
VAAM,6/11/04,0.408333333,0.252843478,0,0.9,96,0
VAAM,6/12/04,0.504166667,0.149325971,0.1,0.7,96,0
VAAM,6/13/04,0.016666667,0.259012971,-0.7,0.5,96,0
VAAM,6/14/04,0.3,0.178885438,-0.1,0.6,96,0
VAAM,6/15/04,-0.033333333,0.555672502,-1.2,0.5,96,0
VAAM,6/16/04,-0.675,0.449795275,-2,-0.1,96,0
VAAM,6/17/04,-0.133333333,0.118469776,-0.5,0.1,96,0
VAAM,6/18/04,0.133333333,0.090223893,0,0.3,96,0
VAAM,6/19/04,0.170833333,0.045691567,0.1,0.2,96,0
VAAM,6/20/04,0.033333333,0.202441241,-0.3,0.2,96,0
VAAM,6/21/04,-0.208333333,0.135853378,-0.5,0,96,0
VAAM,6/22/04,-0.129166667,0.114171309,-0.3,0.1,96,0
VAAM,6/23/04,-0.079166667,0.057886762,-0.2,0,96,0
VAAM,6/24/04,-0.0875,0.052815468,-0.2,0,96,0
VAAM,6/25/04,-0.2,0.100524938,-0.5,-0.1,96,0
VAAM,6/26/04,-0.1625,0.063660283,-0.3,0,96,0
VAAM,6/27/04,-0.220833333,0.057886762,-0.3,-0.1,96,0
VAAM,6/28/04,-0.3875,0.181948518,-0.7,-0.1,96,0
VAAM,6/29/04,-0.566666667,0.090223893,-0.7,-0.4,96,0
VAAM,6/30/04,-0.6125,0.088555662,-0.8,-0.4,96,0
VAAM,7/1/04,-0.695833333,0.073865691,-0.8,-0.6,96,0
VAAM,7/2/04,-0.325,0.23440855,-0.8,0,96,0
VAAM,7/3/04,-0.195833333,0.061416039,-0.3,-0.1,96,0
VAAM,7/4/04,-0.141666667,0.312432449,-1.2,0.2,96,0
VAAM,7/5/04,0.120833333,0.064753243,0,0.2,96,0
VAAM,7/6/04,-0.083333333,0.069079156,-0.2,0,96,0
VAAM,7/7/04,-0.154166667,0.050087642,-0.2,-0.1,96,0
VAAM,7/8/04,-0.329166667,0.184628598,-0.6,0,96,0
VAAM,7/9/04,-0.583333333,0.114860709,-0.8,-0.2,96,0
VAAM,7/10/04,-0.333333333,0.17085954,-0.6,-0.1,96,0
VAAM,7/11/04,-0.145833333,0.293048107,-0.6,0.2,96,0
VAAM,7/12/04,0.058333333,0.076318814,-0.1,0.2,96,0
VAAM,7/13/04,0.083333333,0.155371654,-0.3,0.5,96,0
VAAM,7/14/04,0.15,0.07677719,0,0.3,96,0
VAAM,7/15/04,0.133333333,0.074926865,-0.1,0.2,96,0
VAAM,7/16/04,0.020833333,0.057886762,-0.1,0.1,96,0
VAAM,7/17/04,-0.079166667,0.081971326,-0.2,0.1,96,0
VAAM,7/18/04,-0.104166667,0.121323115,-0.3,0.1,96,0
VAAM,7/19/04,-0.479166667,0.086956331,-0.6,-0.3,96,0
VAAM,7/20/04,-0.704166667,0.098319208,-0.8,-0.4,96,0
VAAM,7/21/04,-0.841666667,0.064345558,-0.9,-0.7,96,0
VAAM,7/22/04,-0.85,0.104629673,-1,-0.7,96,0
VAAM,7/23/04,-0.966666667,0.121972099,-1.1,-0.7,96,0
VAAM,7/24/04,-0.429166667,0.227534459,-0.9,-0.1,96,0
VAAM,7/25/04,-0.5,0.153554379,-0.9,-0.3,96,0
VAAM,7/26/04,-0.783333333,0.062688313,-0.9,-0.7,96,0
VAAM,7/27/04,-0.954166667,0.057886762,-1.1,-0.9,96,0
VAAM,7/28/04,-1.079166667,0.050087642,-1.2,-1,96,0
VAAM,7/29/04,-1.1125,0.044128998,-1.2,-1,96,0
VAAM,7/30/04,-0.975,0.078136183,-1.1,-0.9,96,0
VAAM,7/31/04,-1,0.07677719,-1.2,-0.9,96,0
VAAM,8/1/04,-0.629166667,0.405726552,-1.1,0,96,0
VAAM,8/2/04,-0.104166667,0.137585699,-0.6,0,96,0
VAAM,8/3/04,-0.033333333,0.062688313,-0.1,0.1,96,0
VAAM,8/4/04,-0.075,0.184105233,-0.6,0.2,96,0
VAAM,8/5/04,-0.175,0.133771211,-0.5,0,96,0
VAAM,8/6/04,-0.045833333,0.076662853,-0.3,0.1,96,0
VAAM,8/7/04,-0.2625,0.198547356,-0.6,0.2,96,0
VAAM,8/8/04,0.008333333,0.198768136,-0.5,0.4,96,0
VAAM,8/9/04,-0.091666667,0.190106157,-0.5,0.3,96,0
VAAM,8/10/04,-0.133333333,0.103279556,-0.3,0,96,0
VAAM,8/11/04,-0.154166667,0.108498525,-0.3,0.1,96,0
VAAM,8/12/04,-0.266666667,0.05556725,-0.4,-0.2,96,0
VAAM,8/13/04,-0.266666667,0.05556725,-0.4,-0.2,96,0
VAAM,8/14/04,-0.370833333,0.180009746,-1,-0.1,96,0
VAAM,8/15/04,-0.154166667,0.091670654,-0.3,0,96,0
VAAM,8/16/04,-0.229166667,0.067926689,-0.3,-0.1,96,0
VAAM,8/17/04,-0.241666667,0.104293782,-0.6,-0.1,96,0
VAAM,8/18/04,-0.366666667,0.05556725,-0.5,-0.3,96,0
VAAM,8/19/04,-0.520833333,0.070958352,-0.7,-0.4,96,0
VAAM,8/20/04,-0.616666667,0.04738791,-0.7,-0.5,96,0
VAAM,8/21/04,-0.508333333,0.064345558,-0.6,-0.4,96,0
VAAM,8/22/04,-0.629166667,0.045691567,-0.7,-0.6,96,0
VAAM,8/23/04,-0.633333333,0.062688313,-0.7,-0.5,96,0
VAAM,8/24/04,-0.245833333,0.142102014,-0.5,0,96,0
VAAM,8/25/04,-0.079166667,0.116000605,-0.3,0.1,96,0
VAAM,8/26/04,-0.004166667,0.140612694,-0.3,0.4,96,0
VAAM,8/27/04,-0.008333333,0.081649658,-0.3,0.1,96,0
VAAM,8/28/04,-0.058333333,0.049559463,-0.1,0,96,0
VAAM,8/29/04,-0.054166667,0.096154116,-0.4,0.1,96,0
VAAM,8/30/04,0.05,0.082078268,-0.1,0.3,96,0
VAAM,8/31/04,0.491666667,0.351737542,-0.3,0.8,96,0
VAAM,9/1/04,0.85,0.136111409,0.7,1.2,96,0
VAAM,9/2/04,1.120833333,0.076662853,1,1.3,96,0
VAAM,9/3/04,1.3375,0.063660283,1.2,1.4,96,0
VAAM,9/4/04,1.275,0.092906291,1.1,1.4,96,0
VAAM,9/5/04,1.3625,0.187644681,1.2,2.1,96,0
VAAM,9/6/04,1.125,0.066490997,1,1.2,96,0
VAAM,9/7/04,1.1125,0.044128998,1,1.2,96,0
VAAM,9/8/04,1.083333333,0.05556725,1,1.2,96,0
VAAM,9/9/04,1.058333333,0.057430354,0.9,1.1,96,0
VAAM,9/10/04,0.941666667,0.104293782,0.7,1.1,96,0
VAAM,9/11/04,0.829166667,0.152119528,0.6,1.1,96,0
VAAM,9/12/04,0.770833333,0.079361487,0.6,1,96,0
VAAM,9/13/04,0.65,0.183532587,0.3,1,96,0
VAAM,9/14/04,0.516666667,0.069079156,0.4,0.6,96,0
VAAM,9/15/04,0.8625,0.245913977,0.4,1.2,96,0
VAAM,9/16/04,1.1125,0.184248116,0.7,1.4,96,0
VAAM,9/17/04,1.283333333,0.080350111,1.1,1.4,96,0
VAAM,9/18/04,1.079166667,0.129709527,0.9,1.3,96,0
VAAM,9/19/04,1.141666667,0.18103019,0.7,1.3,96,0
VAAM,9/20/04,1.170833333,0.162815147,0.8,1.3,96,0
VAAM,9/21/04,0.854166667,0.192445025,0.6,1.3,96,0
VAAM,9/22/04,1.054166667,0.192445025,0.8,1.3,96,0
VAAM,9/23/04,4.683333333,1.866416023,0.5,6.9,96,0
VAAM,9/24/04,5.5,0.0580381,5.4,5.6,96,0
VAAM,9/25/04,5.425,0.078136183,5.2,5.5,96,0
VAAM,9/26/04,5.266666667,0.05556725,5.2,5.4,96,0
VAAM,9/27/04,5.2625,0.069962396,5,5.3,96,0
VAAM,9/28/04,5.158333333,0.057430354,5,5.2,96,0
VAAM,9/29/04,5.2375,0.056661506,5.1,5.3,96,0
VAAM,9/30/04,5.2,0.050262469,5.1,5.3,96,0
VAAM,10/1/04,5.145833333,0.057886762,5,5.2,96,0
VAAM,10/2/04,5.125,0.052314836,5,5.2,96,0
VAAM,10/3/04,5.075,0.072547625,4.9,5.2,96,0
VAAM,10/4/04,5.091666667,0.057430354,5,5.2,96,0
VAAM,10/5/04,5.1125,0.145999279,4.7,5.3,96,0
VAAM,10/6/04,5.004166667,0.146479146,4.7,5.3,96,0
VAAM,10/7/04,5.033333333,0.080350111,4.9,5.2,96,0
VAAM,10/8/04,4.9,0.0580381,4.8,5,96,0
VAAM,10/9/04,4.7125,0.088555662,4.6,4.9,96,0
VAAM,10/10/04,4.475,0.097332853,4.2,4.6,96,0
VAAM,10/11/04,4.208333333,0.081649658,4,4.3,96,0
VAAM,10/12/04,3.991666667,0.08665317,3.8,4.1,96,0
VAAM,10/13/04,3.908333333,0.144853223,3.6,4.1,96,0
VAAM,10/14/04,3.929166667,0.098319208,3.7,4.1,96,0
VAAM,10/15/04,3.958333333,0.141916704,3.6,4.2,96,0
VAAM,10/16/04,3.916666667,0.141173031,3.6,4.1,96,0
VAAM,10/17/04,3.916666667,0.180447786,3.3,4.2,96,0
VAAM,10/18/04,3.9625,0.090901914,3.7,4.1,96,0
VAAM,10/19/04,4.029166667,0.089344592,3.8,4.1,96,0
VAAM,10/20/04,4.016666667,0.069079156,3.9,4.1,96,0
VAAM,10/21/04,3.970833333,0.089344592,3.8,4.1,96,0
VAAM,10/22/04,3.9625,0.056661506,3.9,4.1,96,0
VAAM,10/23/04,3.858333333,0.064345558,3.7,4,96,0
VAAM,10/24/04,3.9,0.091766294,3.7,4.1,96,0
VAAM,10/25/04,3.8625,0.118986952,3.6,4.1,96,0
VAAM,10/26/04,3.825,0.066490997,3.7,4,96,0
VAAM,10/27/04,3.8,0.129777137,3.6,4.1,96,0
VAAM,10/28/04,3.75,0.132981993,3.6,4.1,96,0
VAAM,10/29/04,3.691666667,0.112077667,3.6,3.9,96,0
VAAM,10/30/04,3.625,0.127320565,3.5,3.9,96,0
VAAM,10/31/04,3.6,0.136111409,3.4,3.9,96,0
VAAM,11/1/04,3.4625,0.138602043,3.2,3.7,96,0
VAAM,11/2/04,3.0375,0.147434196,2.7,3.2,96,0
VAAM,11/3/04,2.641666667,0.091383134,2.5,2.8,96,0
VAAM,11/4/04,2.429166667,0.089344592,2.2,2.6,96,0
VAAM,11/5/04,2.133333333,0.118469776,1.9,2.4,96,0
VAAM,11/6/04,1.891666667,0.112077667,1.7,2.1,96,0
VAAM,11/7/04,1.6,0.1160762,1.3,1.7,96,0
VAAM,11/8/04,1.141666667,0.126213409,0.8,1.3,96,0
VAAM,11/9/04,0.475,0.123969436,0.3,0.7,96,0
VAAM,11/10/04,0.366666667,0.165857686,-0.2,0.6,96,0
VAAM,11/11/04,0.366666667,0.074926865,0.3,0.5,96,0
VAAM,11/12/04,0.3875,0.101825444,0.2,0.6,96,0
VAAM,11/13/04,0.4125,0.105879773,0.3,0.6,96,0
VAAM,11/14/04,0.4875,0.078472255,0.4,0.6,96,0
VAAM,11/15/04,0.504166667,0.102512301,0.3,0.7,96,0
VAAM,11/16/04,0.541666667,0.08665317,0.4,0.8,96,0
VAAM,11/17/04,0.5875,0.088555662,0.4,0.7,96,0
VAAM,11/18/04,0.575,0.101566675,0.3,0.8,96,0
VAAM,11/19/04,0.575,0.101566675,0.5,0.8,96,0
VAAM,11/20/04,0.529166667,0.128076183,0.4,0.8,96,0
VAAM,11/21/04,0.445833333,0.164103091,0.2,0.8,96,0
VAAM,11/22/04,0.545833333,0.070958352,0.5,0.8,96,0
VAAM,11/23/04,0.558333333,0.091383134,0.4,0.8,96,0
VAAM,11/24/04,0.55,0.082078268,0.4,0.7,96,0
VAAM,11/25/04,0.558333333,0.076318814,0.4,0.7,96,0
VAAM,11/26/04,0.516666667,0.090223893,0.4,0.8,96,0
VAAM,11/27/04,0.520833333,0.104545801,0.4,0.8,96,0
VAAM,11/28/04,0.5625,0.075741944,0.4,0.7,96,0
VAAM,11/29/04,0.575,0.072547625,0.4,0.7,96,0
VAAM,11/30/04,0.5375,0.115394062,0.3,0.7,96,0
VAAM,12/1/04,0.294623656,0.172176345,0,0.6,93,3
VAAM,12/2/04,0.141666667,0.100175285,0,0.3,96,0
VAAM,12/3/04,0.054166667,0.136046948,-0.2,0.3,96,0
VAAM,12/4/04,-0.133333333,0.340484691,-1.3,0.3,96,0
VAAM,12/5/04,-0.145833333,0.142102014,-0.4,0.2,96,0
VAAM,12/6/04,-0.291666667,0.233809039,-0.7,0.1,96,0
VAAM,12/7/04,-0.2375,0.284049662,-0.7,0.3,96,0
VAAM,12/8/04,-0.283333333,0.306651411,-0.9,0.2,96,0
VAAM,12/9/04,-0.2125,0.239846442,-0.8,0.2,96,0
VAAM,12/10/04,-0.254166667,0.264342946,-0.8,0.2,96,0
VAAM,12/11/04,-0.358333333,0.33455915,-1.3,0.1,96,0
VAAM,12/12/04,-0.291666667,0.257790885,-0.8,0.3,96,0
VAAM,12/13/04,-0.291666667,0.190106157,-0.5,0.2,96,0
VAAM,12/14/04,-0.366666667,0.202441241,-0.8,-0.1,96,0
VAAM,12/15/04,-0.283333333,0.295462765,-0.8,0.1,96,0
VAAM,12/16/04,-0.304166667,0.23120584,-0.8,0.1,96,0
VAAM,12/17/04,-0.3,0.198944584,-0.8,0,96,0
VAAM,12/18/04,-0.35,0.27834095,-1.1,0.2,96,0
VAAM,12/19/04,-0.2875,0.113554995,-0.5,-0.1,96,0
VAAM,12/20/04,-0.120833333,0.273733127,-0.7,0.3,96,0
VAAM,12/21/04,-0.020833333,0.142102014,-0.3,0.2,96,0
VAAM,12/22/04,0.154166667,0.096154116,0,0.3,96,0
VAAM,12/23/04,0.183333333,0.090223893,0.1,0.4,96,0
VAAM,12/24/04,0.166666667,0.09477582,0,0.4,96,0
VAAM,12/25/04,0.145833333,0.081971326,0,0.3,96,0
VAAM,12/26/04,0.083333333,0.131922359,-0.1,0.4,96,0
VAAM,12/27/04,0.020833333,0.104545801,-0.1,0.2,96,0
VAAM,12/28/04,0.045833333,0.119575272,-0.1,0.2,96,0
VAAM,12/29/04,0.045833333,0.112312221,-0.1,0.2,96,0
VAAM,12/30/04,0.008333333,0.129506486,-0.1,0.3,96,0
VAAM,12/31/04,0.0125,0.113554995,-0.1,0.3,96,0
VAAM,1/1/05,0.054166667,0.104545801,-0.1,0.3,96,0
VAAM,1/2/05,0.041666667,0.104293782,-0.1,0.2,96,0
VAAM,1/3/05,0.141666667,0.166491136,-0.1,0.5,96,0
VAAM,1/4/05,0.058333333,0.076318814,-0.1,0.2,96,0
VAAM,1/5/05,0.020833333,0.091670654,-0.2,0.2,96,0
VAAM,1/6/05,0.116666667,0.128691117,-0.1,0.3,96,0
VAAM,1/7/05,0.016666667,0.114860709,-0.2,0.4,96,0
VAAM,1/8/05,0.070833333,0.067926689,-0.1,0.2,96,0
VAAM,1/9/05,0.1125,0.033245498,0.1,0.2,96,0
VAAM,1/10/05,0.154166667,0.086956331,0,0.4,96,0
VAAM,1/11/05,0.120833333,0.057886762,0,0.3,96,0
VAAM,1/12/05,0.125,0.066490997,0,0.3,96,0
VAAM,1/13/05,0.145833333,0.129709527,0,0.5,96,0
VAAM,1/14/05,0.141666667,0.057430354,0.1,0.3,96,0
VAAM,1/15/05,0.1625,0.095421503,0,0.4,96,0
VAAM,1/16/05,0.1625,0.103872391,0,0.4,96,0
VAAM,1/17/05,0.095833333,0.089344592,0,0.3,96,0
VAAM,1/18/05,0.158333333,0.104293782,0,0.3,96,0
VAAM,1/19/05,0.141666667,0.095880042,0,0.3,96,0
VAAM,1/20/05,0.133333333,0.103279556,-0.1,0.4,96,0
VAAM,1/21/05,0.145833333,0.164103091,-0.1,0.5,96,0
VAAM,1/22/05,0.091666667,0.171474513,-0.2,0.4,96,0
VAAM,1/23/05,0.058333333,0.119354992,-0.1,0.4,96,0
VAAM,1/24/05,0.05,0.064888568,0,0.2,96,0
VAAM,1/25/05,0.054166667,0.091670654,-0.1,0.2,96,0
VAAM,1/26/05,0.066666667,0.131922359,-0.1,0.3,96,0
VAAM,1/27/05,0.058333333,0.138918126,-0.2,0.3,96,0
VAAM,1/28/05,0.020833333,0.156216224,-0.2,0.4,96,0
VAAM,1/29/05,0.0375,0.158446405,-0.2,0.3,96,0
VAAM,1/30/05,0.070833333,0.160208198,-0.2,0.3,96,0
VAAM,1/31/05,0.033333333,0.147017125,-0.2,0.3,96,0
VAAM,2/1/05,0.054166667,0.198900486,-0.2,0.4,96,0
VAAM,2/2/05,0.029166667,0.160208198,-0.2,0.3,96,0
VAAM,2/3/05,-0.054166667,0.091670654,-0.2,0.1,96,0
VAAM,2/4/05,0.020833333,0.132916014,-0.1,0.4,96,0
VAAM,2/5/05,-0.054166667,0.150729222,-0.3,0.2,96,0
VAAM,2/6/05,0.033333333,0.147017125,-0.1,0.3,96,0
VAAM,2/7/05,-0.05,0.112390297,-0.2,0.2,96,0
VAAM,2/8/05,-0.029166667,0.128076183,-0.2,0.3,96,0
VAAM,2/9/05,-0.0125,0.179619481,-0.2,0.4,96,0
VAAM,2/10/05,0.029166667,0.184628598,-0.2,0.4,96,0
VAAM,2/11/05,-0.008333333,0.081649658,-0.1,0.2,96,0
VAAM,2/12/05,-0.0625,0.141607315,-0.3,0.2,96,0
VAAM,2/13/05,-0.079166667,0.13910743,-0.2,0.3,96,0
VAAM,2/14/05,-0.1,0.132981993,-0.2,0.2,96,0
VAAM,2/15/05,-0.141666667,0.100175285,-0.3,0,96,0
VAAM,2/16/05,-0.1125,0.072909461,-0.2,0.1,96,0
VAAM,2/17/05,-0.145833333,0.057886762,-0.2,0,96,0
VAAM,2/18/05,-0.120833333,0.070958352,-0.2,0,96,0
VAAM,2/19/05,-0.141666667,0.057430354,-0.2,0,96,0
VAAM,2/20/05,-0.125,0.066490997,-0.2,0,96,0
VAAM,2/21/05,0.258333333,0.548234807,-0.3,1.4,96,0
VAAM,2/22/05,2.154166667,0.244482985,1.5,2.6,96,0
VAAM,2/23/05,3.591666667,0.380489067,2.6,4,96,0
VAAM,2/24/05,3.833333333,0.074926865,3.7,4,96,0
VAAM,2/25/05,3.6875,0.093189112,3.5,3.9,96,0
VAAM,2/26/05,3.720833333,0.081971326,3.6,3.9,96,0
VAAM,2/27/05,3.6875,0.127527087,3.4,3.9,96,0
VAAM,2/28/05,3.608333333,0.119354992,3.3,3.8,96,0
VAAM,3/1/05,3.466666667,0.107278944,3.3,3.7,96,0
VAAM,3/2/05,3.608333333,0.138918126,3.3,3.9,96,0
VAAM,3/3/05,3.1375,0.313637404,2.5,3.6,96,0
VAAM,3/4/05,2.720833333,0.123046133,2.5,3,96,0
VAAM,3/5/05,2.983333333,0.155371654,2.7,3.2,96,0
VAAM,3/6/05,3.15,0.1160762,2.9,3.4,96,0
VAAM,3/7/05,3.2375,0.163674902,2.9,3.5,96,0
VAAM,3/8/05,3.233333333,0.118469776,3,3.4,96,0
VAAM,3/9/05,3.191666667,0.108255708,3,3.4,96,0
VAAM,3/10/05,3.133333333,0.131922359,2.9,3.4,96,0
VAAM,3/11/05,3.1125,0.072909461,2.9,3.3,96,0
VAAM,3/12/05,3.154166667,0.108498525,3,3.4,96,0
VAAM,3/13/05,3.233333333,0.1111345,3,3.4,96,0
VAAM,3/14/05,3.291666667,0.095880042,3.1,3.4,96,0
VAAM,3/15/05,3.3125,0.113554995,3.1,3.5,96,0
VAAM,3/16/05,3.2625,0.081110711,3,3.4,96,0
VAAM,3/17/05,3.179166667,0.116000605,3,3.4,96,0
VAAM,3/18/05,3.0875,0.093189112,2.9,3.3,96,0
VAAM,3/19/05,2.933333333,0.1111345,2.7,3.1,96,0
VAAM,3/20/05,2.783333333,0.135076327,2.6,3.1,96,0
VAAM,3/21/05,3.145833333,0.302938822,2.5,3.7,96,0
VAAM,3/22/05,2.733333333,0.556429722,2.1,3.7,96,0
VAAM,3/23/05,2.2,0.158943883,1.8,2.7,96,0
VAAM,3/24/05,2.279166667,0.050087642,2.2,2.4,96,0
VAAM,3/25/05,2.308333333,0.040175056,2.2,2.4,96,0
VAAM,3/26/05,2.266666667,0.062688313,2.1,2.4,96,0
VAAM,3/27/05,2.108333333,0.122832078,1.9,2.3,96,0
VAAM,3/28/05,2.091666667,0.08665317,1.9,2.2,96,0
VAAM,3/29/05,2.058333333,0.070586515,2,2.2,96,0
VAAM,3/30/05,1.991666667,0.081649658,1.9,2.2,96,0
VAAM,3/31/05,2.1,0.08705715,2,2.3,96,0
VAAM,4/1/05,1.9375,0.18078775,1.6,2.3,96,0
VAAM,4/2/05,1.475,0.120525167,1.3,1.7,96,0
VAAM,4/3/05,1.454166667,0.076662853,1.4,1.7,96,0
VAAM,4/4/05,1.6,0.129777137,1.4,1.8,96,0
VAAM,4/5/05,1.704166667,0.257075318,1.3,2.3,96,0
VAAM,4/6/05,2.4,0.07677719,2.3,2.5,96,0
VAAM,4/7/05,2.383333333,0.074926865,2.2,2.5,96,0
VAAM,4/8/05,2.225,0.127320565,2,2.4,96,0
VAAM,4/9/05,2,0.108579343,1.8,2.2,96,0
VAAM,4/10/05,2.045833333,0.251277438,1.3,2.4,96,0
VAAM,4/11/05,2.295833333,0.093939137,2.1,2.4,96,0
VAAM,4/12/05,2.229166667,0.093939137,2.1,2.4,96,0
VAAM,4/13/05,2.029166667,0.093939137,1.9,2.3,96,0
VAAM,4/14/05,2.083333333,0.114860709,2,2.3,96,0
VAAM,4/15/05,2.208333333,0.108255708,2,2.4,96,0
VAAM,4/16/05,2.141666667,0.100175285,1.9,2.3,96,0
VAAM,4/17/05,1.904166667,0.182333798,1.5,2.1,96,0
VAAM,4/18/05,1.470833333,0.124745355,1.2,1.6,96,0
VAAM,4/19/05,1.458333333,0.185623652,1.2,2.2,96,0
VAAM,4/20/05,2.016666667,0.107278944,1.8,2.2,96,0
VAAM,4/21/05,1.820833333,0.040824829,1.8,1.9,96,0
VAAM,4/22/05,1.808333333,0.326920775,0.8,2.1,96,0
VAAM,4/23/05,2.008333333,0.986185278,0.3,3.9,96,0
VAAM,4/24/05,4.008333333,0.907009739,0.3,4.8,96,0
VAAM,4/25/05,4.366666667,0.329166944,3,4.6,96,0
VAAM,4/26/05,5.479166667,0.132916014,5.1,5.7,96,0
VAAM,4/27/05,5.445833333,0.086956331,5.2,5.6,96,0
VAAM,4/28/05,5.120833333,0.091670654,5,5.3,96,0
VAAM,4/29/05,5.004166667,0.045691567,4.9,5.1,96,0
VAAM,4/30/05,4.966666667,0.05556725,4.9,5.1,96,0
VAAM,5/1/05,4.983333333,0.05556725,4.9,5.1,96,0
VAAM,5/2/05,4.141666667,1.059460306,2.1,5,96,0
VAAM,5/3/05,2.041666667,0.163942652,1.6,2.3,96,0
VAAM,5/4/05,1.066666667,0.402797237,0.2,1.9,96,0
VAAM,5/5/05,0.016666667,0.279347611,-0.5,0.4,96,0
VAAM,5/6/05,0.4,0.727215309,-0.4,1.9,96,0
VAAM,5/7/05,1.7625,0.150262927,1.3,2,96,0
VAAM,5/8/05,1.704166667,0.079361487,1.5,1.8,96,0
VAAM,5/9/05,1.629166667,0.098319208,1.3,1.8,96,0
VAAM,5/10/05,1.55,0.08705715,1.4,1.7,96,0
VAAM,5/11/05,1.416666667,0.135076327,1.2,1.6,96,0
VAAM,5/12/05,1.316666667,0.09477582,1.2,1.5,96,0
VAAM,5/13/05,1.3,0.132981993,0.8,1.5,96,0
VAAM,5/14/05,1.141666667,0.100175285,0.9,1.3,96,0
VAAM,5/15/05,1,0.096245301,0.8,1.1,96,0
VAAM,5/16/05,0.908333333,0.153325705,0.5,1.2,96,0
VAAM,5/17/05,0.579166667,0.190244533,0.2,0.8,96,0
VAAM,5/18/05,0.429166667,0.352410247,-0.2,0.9,96,0
VAAM,5/19/05,0.420833333,0.262745291,0.1,0.9,96,0
VAAM,5/20/05,0.329166667,0.067926689,0.2,0.4,96,0
VAAM,5/21/05,0.608333333,0.207068088,0.2,0.9,96,0
VAAM,5/22/05,0.225,0.186378223,-0.3,0.5,96,0
VAAM,5/23/05,0.2875,0.066885605,0.1,0.4,96,0
VAAM,5/24/05,-0.075,0.083350875,-0.2,0.1,96,0
VAAM,5/25/05,-0.25,0.064888568,-0.4,-0.2,96,0